R9YAAM-13 Weather Reports


time (UTC)temp
C
wind
direction
speed
KPH
gust
KPH
rain 1hr
cm
rain 24hr
cm
rain mn
cm
humidity
%
barometer
mb
20260509085945 28 0 0.0 0.0 0.00 0.00 0.00 32 981.1
20260509084930 26 0 0.0 0.0 0.00 0.00 0.00 34 981.6
20260509083930 27 0 0.0 0.0 0.00 0.00 0.00 33 981.7
20260509082830 27 0 0.0 0.0 0.00 0.00 0.00 33 981.9
20260509081730 28 0 0.0 0.0 0.00 0.00 0.00 32 982.2
20260509080630 27 0 0.0 0.0 0.00 0.00 0.00 35 982.5
20260509075630 27 0 0.0 0.0 0.00 0.00 0.00 34 982.7
20260509074630 27 0 0.0 0.0 0.00 0.00 0.00 35 983.0
20260509073530 27 0 0.0 0.0 0.00 0.00 0.00 35 983.1
20260509072530 27 0 0.0 0.0 0.00 0.00 0.00 34 983.3
20260509071530 26 0 0.0 0.0 0.00 0.00 0.00 36 983.6
20260509070430 26 0 0.0 0.0 0.00 0.00 0.00 36 983.9
20260509065430 25 0 0.0 0.0 0.00 0.00 0.00 36 984.1
20260509064430 26 0 0.0 0.0 0.00 0.00 0.00 37 984.2
20260509063330 26 0 0.0 0.0 0.00 0.00 0.00 37 984.5
20260509062230 25 0 0.0 0.0 0.00 0.00 0.00 37 984.6
20260509061245 25 0 0.0 0.0 0.00 0.00 0.00 36 984.8
20260509060130 25 0 0.0 0.0 0.00 0.00 0.00 39 984.8
20260509055130 25 0 0.0 0.0 0.00 0.00 0.00 40 985.2
20260509054130 25 0 0.0 0.0 0.00 0.00 0.00 40 985.3
20260509053130 24 0 0.0 0.0 0.00 0.00 0.00 43 985.4
20260509052130 24 0 0.0 0.0 0.00 0.00 0.00 42 985.5
20260509051030 23 0 0.0 0.0 0.00 0.00 0.00 46 985.8
20260509044830 22 0 0.0 0.0 0.00 0.00 0.00 50 986.2
20260509043730 22 0 0.0 0.0 0.00 0.00 0.00 47 986.3
20260509042729 22 0 0.0 0.0 0.00 0.00 0.00 48 986.2
20260509041730 22 0 0.0 0.0 0.00 0.00 0.00 50 986.3
20260509040730 22 0 0.0 0.0 0.00 0.00 0.00 52 986.4
20260509035630 21 0 0.0 0.0 0.00 0.00 0.00 55 986.6
20260509034630 21 0 0.0 0.0 0.00 0.00 0.00 54 986.6
20260509033630 21 0 0.0 0.0 0.00 0.00 0.00 56 986.9
20260509032530 21 0 0.0 0.0 0.00 0.00 0.00 54 986.9
20260509031430 20 0 0.0 0.0 0.00 0.00 0.00 55 987.0
20260509030430 20 0 0.0 0.0 0.00 0.00 0.00 54 987.0
20260509025330 21 0 0.0 0.0 0.00 0.00 0.00 54 987.1
20260509024330 20 0 0.0 0.0 0.00 0.00 0.00 59 987.1
20260509023330 20 0 0.0 0.0 0.00 0.00 0.00 58 987.2
20260509022330 20 0 0.0 0.0 0.00 0.00 0.00 60 987.3
20260509021330 18 0 0.0 0.0 0.00 0.00 0.00 66 987.3
20260509020345 17 0 0.0 0.0 0.00 0.00 0.00 67 987.4
20260509015230 18 0 0.0 0.0 0.00 0.00 0.00 67 987.4
20260509014230 17 0 0.0 0.0 0.00 0.00 0.00 73 987.5
20260509013145 17 0 0.0 0.0 0.00 0.00 0.00 74 987.6
20260509012130 17 0 0.0 0.0 0.00 0.00 0.00 78 987.6
20260509011030 16 0 0.0 0.0 0.00 0.00 0.00 81 987.6
20260509010030 15 0 0.0 0.0 0.00 0.00 0.00 81 987.5
20260509004930 15 0 0.0 0.0 0.00 0.00 0.00 83 987.4
20260509003930 15 0 0.0 0.0 0.00 0.00 0.00 85 987.4
20260509002830 14 0 0.0 0.0 0.00 0.00 0.00 85 987.4
20260509001830 14 0 0.0 0.0 0.00 0.00 0.00 86 987.4
20260509000730 14 0 0.0 0.0 0.00 0.00 0.00 87 987.3
20260508235729 14 0 0.0 0.0 0.00 0.00 0.00 88 987.2
20260508234630 14 0 0.0 0.0 0.00 0.00 0.00 88 987.2
20260508233630 13 0 0.0 0.0 0.00 0.00 0.00 88 987.1
20260508232630 13 0 0.0 0.0 0.00 0.00 0.00 88 987.1
20260508231700 13 0 0.0 0.0 0.00 0.00 0.00 88 987.1
20260508230630 13 0 0.0 0.0 0.00 0.00 0.00 88 987.2
20260508225632 13 0 0.0 0.0 0.00 0.00 0.00 87 987.2
20260508224529 12 0 0.0 0.0 0.00 0.00 0.00 87 987.1
20260508223430 12 0 0.0 0.0 0.00 0.00 0.00 86 987.1
20260508222430 12 0 0.0 0.0 0.00 0.00 0.00 86 987.1
20260508221429 13 0 0.0 0.0 0.00 0.00 0.00 86 987.3
20260508220430 13 0 0.0 0.0 0.00 0.00 0.00 86 987.3
20260508215330 13 0 0.0 0.0 0.00 0.00 0.00 85 987.4
20260508214330 13 0 0.0 0.0 0.00 0.00 0.00 85 987.4
20260508213330 13 0 0.0 0.0 0.00 0.00 0.00 85 987.4
20260508212330 13 0 0.0 0.0 0.00 0.00 0.00 84 987.5
20260508211330 13 0 0.0 0.0 0.00 0.00 0.00 84 987.5
20260508210230 13 0 0.0 0.0 0.00 0.00 0.00 84 987.4
20260508205230 13 0 0.0 0.0 0.00 0.00 0.00 83 987.4
20260508204230 14 0 0.0 0.0 0.00 0.00 0.00 83 987.5
20260508203130 14 0 0.0 0.0 0.00 0.00 0.00 82 987.7
20260508202130 14 0 0.0 0.0 0.00 0.00 0.00 81 987.6
20260508201130 14 0 0.0 0.0 0.00 0.00 0.00 81 987.7
20260508200030 15 0 0.0 0.0 0.00 0.00 0.00 81 987.6
20260508195030 15 0 0.0 0.0 0.00 0.00 0.00 81 987.6
20260508193930 15 0 0.0 0.0 0.00 0.00 0.00 81 987.6
20260508192830 14 0 0.0 0.0 0.00 0.00 0.00 81 987.6
20260508191730 14 0 0.0 0.0 0.00 0.00 0.00 79 987.6
20260508190730 15 0 0.0 0.0 0.00 0.00 0.00 79 987.7
20260508185630 15 0 0.0 0.0 0.00 0.00 0.00 78 987.8
20260508184630 15 0 0.0 0.0 0.00 0.00 0.00 78 987.8
20260508183630 15 0 0.0 0.0 0.00 0.00 0.00 77 987.9
20260508182530 15 0 0.0 0.0 0.00 0.00 0.00 78 987.8
20260508181530 15 0 0.0 0.0 0.00 0.00 0.00 77 987.8
20260508180445 15 0 0.0 0.0 0.00 0.00 0.00 77 987.8
20260508175430 15 0 0.0 0.0 0.00 0.00 0.00 76 987.8
20260508174330 16 0 0.0 0.0 0.00 0.00 0.00 76 987.9
20260508173329 16 0 0.0 0.0 0.00 0.00 0.00 75 987.9
20260508172330 16 0 0.0 0.0 0.00 0.00 0.00 74 987.8
20260508171230 16 0 0.0 0.0 0.00 0.00 0.00 74 987.7
20260508170230 16 0 0.0 0.0 0.00 0.00 0.00 73 987.8
20260508165130 16 0 0.0 0.0 0.00 0.00 0.00 71 987.8
20260508164130 17 0 0.0 0.0 0.00 0.00 0.00 71 987.8
20260508163130 17 0 0.0 0.0 0.00 0.00 0.00 73 988.0
20260508162130 16 0 0.0 0.0 0.00 0.00 0.00 77 988.1
20260508161129 16 0 0.0 0.0 0.00 0.00 0.00 77 988.0
20260508160030 16 0 0.0 0.0 0.00 0.00 0.00 76 988.0
20260508155030 16 0 0.0 0.0 0.00 0.00 0.00 73 988.0
20260508153929 17 0 0.0 0.0 0.00 0.00 0.00 71 988.0
20260508152830 17 0 0.0 0.0 0.00 0.00 0.00 71 988.0
20260508151830 17 0 0.0 0.0 0.00 0.00 0.00 70 988.0
20260508150844 17 0 0.0 0.0 0.00 0.00 0.00 70 988.0
20260508145745 18 0 0.0 0.0 0.00 0.00 0.00 69 987.9
20260508144729 18 0 0.0 0.0 0.00 0.00 0.00 69 987.9
20260508143630 18 0 0.0 0.0 0.00 0.00 0.00 68 987.8
20260508142630 18 0 0.0 0.0 0.00 0.00 0.00 68 987.6
20260508141630 18 0 0.0 0.0 0.00 0.00 0.00 67 987.6
20260508140630 18 0 0.0 0.0 0.00 0.00 0.00 66 987.6
20260508135629 18 0 0.0 0.0 0.00 0.00 0.00 65 987.5
20260508134629 19 0 0.0 0.0 0.00 0.00 0.00 64 987.4
20260508133530 19 0 0.0 0.0 0.00 0.00 0.00 64 987.4
20260508132530 20 0 0.0 0.0 0.00 0.00 0.00 62 987.3
20260508131530 20 0 0.0 0.0 0.00 0.00 0.00 62 987.3
20260508130429 20 0 0.0 0.0 0.00 0.00 0.00 61 987.3
20260508125429 20 0 0.0 0.0 0.00 0.00 0.00 60 987.3
20260508124329 20 0 0.0 0.0 0.00 0.00 0.00 58 987.4
20260508123329 20 0 0.0 0.0 0.00 0.00 0.00 60 987.4
20260508122330 20 0 0.0 0.0 0.00 0.00 0.00 58 987.2
20260508121245 20 0 0.0 0.0 0.00 0.00 0.00 57 987.3
20260508120130 21 0 0.0 0.0 0.00 0.00 0.00 56 987.3
20260508115030 21 0 0.0 0.0 0.00 0.00 0.00 55 987.3
20260508113930 22 0 0.0 0.0 0.00 0.00 0.00 53 987.2
20260508112930 22 0 0.0 0.0 0.00 0.00 0.00 53 987.3
20260508111929 23 0 0.0 0.0 0.00 0.00 0.00 52 987.2
20260508110930 22 0 0.0 0.0 0.00 0.00 0.00 52 987.2
20260508105830 23 0 0.0 0.0 0.00 0.00 0.00 51 987.2
20260508104829 22 0 0.0 0.0 0.00 0.00 0.00 51 987.3
20260508103745 23 0 0.0 0.0 0.00 0.00 0.00 49 987.2
20260508102730 23 0 0.0 0.0 0.00 0.00 0.00 50 987.2
20260508101630 22 0 0.0 0.0 0.00 0.00 0.00 52 987.3
20260508100629 23 0 0.0 0.0 0.00 0.00 0.00 52 987.4
20260508095630 22 0 0.0 0.0 0.00 0.00 0.00 52 987.5
20260508094530 22 0 0.0 0.0 0.00 0.00 0.00 53 987.6
20260508093530 22 0 0.0 0.0 0.00 0.00 0.00 56 987.7
20260508092430 22 0 0.0 0.0 0.00 0.00 0.00 56 987.7
20260508091429 22 0 0.0 0.0 0.00 0.00 0.00 58 987.8